Time,TemperatureF,DewpointF,PressureIn,WindDirection,WindDirectionDegrees,WindSpeedMPH,WindSpeedGustMPH,Humidity,HourlyPrecipIn,Conditions,Clouds,dailyrainin,SoftwareType,DateUTC
2013-04-23 00:03:00,47.0,35.0,30.20,ESE,114,0.0,3.0,62,0.00,,,0.00,,2013-04-23 04:03:00,
2013-04-23 00:12:00,47.0,35.0,30.20,ESE,114,0.0,3.0,62,0.00,,,0.00,,2013-04-23 04:12:00,
2013-04-23 00:23:00,46.0,35.0,30.19,ESE,114,0.0,1.0,64,0.00,,,0.00,,2013-04-23 04:23:00,
2013-04-23 00:33:00,45.0,34.0,30.19,ESE,114,0.0,1.0,65,0.00,,,0.00,,2013-04-23 04:33:00,
2013-04-23 00:43:00,45.0,34.0,30.19,ESE,114,0.0,1.0,65,0.00,,,0.00,,2013-04-23 04:43:00,
2013-04-23 00:53:00,45.0,34.0,30.18,East,93,0.0,1.0,66,0.00,,,0.00,,2013-04-23 04:53:00,
2013-04-23 01:02:00,44.0,34.0,30.17,East,98,0.0,1.0,67,0.00,,,0.00,,2013-04-23 05:02:00,
2013-04-23 01:12:00,44.0,34.0,30.17,East,98,0.0,1.0,67,0.00,,,0.00,,2013-04-23 05:12:00,
2013-04-23 01:22:00,44.0,34.0,30.17,ENE,77,0.0,2.0,68,0.00,,,0.00,,2013-04-23 05:22:00,
2013-04-23 01:32:00,43.0,34.0,30.17,East,84,0.0,1.0,69,0.00,,,0.00,,2013-04-23 05:32:00,
2013-04-23 01:42:00,43.0,34.0,30.17,East,84,0.0,1.0,69,0.00,,,0.00,,2013-04-23 05:42:00,
2013-04-23 01:52:00,43.0,34.0,30.17,East,83,0.0,0.0,71,0.00,,,0.00,,2013-04-23 05:52:00,
2013-04-23 02:02:00,42.0,34.0,30.16,East,84,0.0,0.0,73,0.00,,,0.00,,2013-04-23 06:02:00,
2013-04-23 02:12:00,42.0,34.0,30.16,East,84,0.0,0.0,73,0.00,,,0.00,,2013-04-23 06:12:00,
2013-04-23 02:22:00,41.0,34.0,30.16,East,84,0.0,0.0,75,0.00,,,0.00,,2013-04-23 06:22:00,
2013-04-23 02:33:00,40.0,33.0,30.16,East,84,0.0,0.0,77,0.00,,,0.00,,2013-04-23 06:33:00,
2013-04-23 02:42:00,40.0,33.0,30.16,East,84,0.0,0.0,77,0.00,,,0.00,,2013-04-23 06:42:00,
2013-04-23 02:52:00,40.0,34.0,30.16,East,84,0.0,0.0,79,0.00,,,0.00,,2013-04-23 06:52:00,
2013-04-23 03:02:00,39.0,33.0,30.15,East,83,0.0,0.0,80,0.00,,,0.00,,2013-04-23 07:02:00,
2013-04-23 03:11:00,39.0,33.0,30.15,East,83,0.0,0.0,80,0.00,,,0.00,,2013-04-23 07:11:00,
2013-04-23 03:22:00,39.0,34.0,30.14,East,83,0.0,0.0,81,0.00,,,0.00,,2013-04-23 07:22:00,
2013-04-23 03:32:00,38.0,33.0,30.14,East,83,0.0,0.0,82,0.00,,,0.00,,2013-04-23 07:32:00,
2013-04-23 03:42:00,38.0,33.0,30.14,East,83,0.0,0.0,82,0.00,,,0.00,,2013-04-23 07:42:00,
2013-04-23 03:52:00,38.0,33.0,30.13,East,83,0.0,0.0,83,0.00,,,0.00,,2013-04-23 07:52:00,
2013-04-23 04:02:00,37.0,33.0,30.13,East,83,0.0,0.0,85,0.00,,,0.00,,2013-04-23 08:02:00,
2013-04-23 04:11:00,37.0,33.0,30.13,East,83,0.0,0.0,85,0.00,,,0.00,,2013-04-23 08:11:00,
2013-04-23 04:21:00,37.0,34.0,30.13,East,84,0.0,0.0,87,0.00,,,0.00,,2013-04-23 08:21:00,
2013-04-23 04:32:00,37.0,34.0,30.12,East,84,0.0,0.0,87,0.00,,,0.00,,2013-04-23 08:32:00,
2013-04-23 04:42:00,37.0,34.0,30.12,East,84,0.0,0.0,87,0.00,,,0.00,,2013-04-23 08:42:00,
2013-04-23 04:52:00,37.0,34.0,30.12,East,84,0.0,0.0,89,0.00,,,0.00,,2013-04-23 08:52:00,
2013-04-23 05:02:00,37.0,35.0,30.11,East,84,0.0,0.0,91,0.00,,,0.00,,2013-04-23 09:02:00,
2013-04-23 05:11:00,37.0,35.0,30.11,East,84,0.0,0.0,91,0.00,,,0.00,,2013-04-23 09:11:00,
2013-04-23 05:21:00,36.0,34.0,30.11,East,84,0.0,0.0,92,0.00,,,0.00,,2013-04-23 09:21:00,
2013-04-23 05:33:00,36.0,34.0,30.10,East,84,0.0,0.0,91,0.00,,,0.00,,2013-04-23 09:33:00,
2013-04-23 05:43:00,36.0,34.0,30.10,East,84,0.0,0.0,91,0.00,,,0.00,,2013-04-23 09:43:00,
2013-04-23 05:53:00,36.0,34.0,30.10,East,84,0.0,2.0,93,0.00,,,0.00,,2013-04-23 09:53:00,
2013-04-23 06:03:00,36.0,34.0,30.09,East,84,0.0,1.0,94,0.00,,,0.00,,2013-04-23 10:03:00,
2013-04-23 06:13:00,36.0,34.0,30.09,East,84,0.0,1.0,94,0.00,,,0.00,,2013-04-23 10:13:00,
2013-04-23 06:23:00,37.0,35.0,30.08,East,84,1.0,2.0,93,0.00,,,0.00,,2013-04-23 10:23:00,
2013-04-23 06:33:00,38.0,36.0,30.07,ENE,77,0.0,1.0,93,0.00,,,0.00,,2013-04-23 10:33:00,
2013-04-23 06:42:00,38.0,36.0,30.07,ENE,77,0.0,1.0,93,0.00,,,0.00,,2013-04-23 10:42:00,
2013-04-23 06:52:00,40.0,37.0,30.08,ESE,103,0.0,1.0,89,0.00,,,0.00,,2013-04-23 10:52:00,
2013-04-23 07:03:00,40.0,36.0,30.08,ESE,103,0.0,1.0,87,0.00,,,0.00,,2013-04-23 11:03:00,
2013-04-23 07:12:00,40.0,36.0,30.08,ESE,103,0.0,1.0,87,0.00,,,0.00,,2013-04-23 11:12:00,
2013-04-23 07:21:00,41.0,37.0,30.09,ESE,103,0.0,0.0,85,0.00,,,0.00,,2013-04-23 11:21:00,
2013-04-23 07:32:00,42.0,37.0,30.09,East,93,0.0,1.0,82,0.00,,,0.00,,2013-04-23 11:32:00,
2013-04-23 07:43:00,42.0,37.0,30.09,East,93,0.0,1.0,82,0.00,,,0.00,,2013-04-23 11:43:00,
2013-04-23 07:53:00,44.0,38.0,30.09,SE,145,0.0,2.0,78,0.00,,,0.00,,2013-04-23 11:53:00,
2013-04-23 08:02:00,45.0,38.0,30.09,SE,125,0.0,2.0,75,0.00,,,0.00,,2013-04-23 12:02:00,
2013-04-23 08:12:00,45.0,38.0,30.09,SE,125,0.0,2.0,75,0.00,,,0.00,,2013-04-23 12:12:00,
2013-04-23 08:22:00,46.0,37.0,30.09,ESE,110,0.0,2.0,71,0.00,,,0.00,,2013-04-23 12:22:00,
2013-04-23 08:32:00,48.0,37.0,30.09,SSE,159,1.0,3.0,65,0.00,,,0.00,,2013-04-23 12:32:00,
2013-04-23 08:42:00,48.0,37.0,30.09,SSE,159,1.0,3.0,65,0.00,,,0.00,,2013-04-23 12:42:00,
2013-04-23 08:52:00,50.0,37.0,30.07,SE,129,0.0,2.0,60,0.00,,,0.00,,2013-04-23 12:52:00,
2013-04-23 09:01:00,52.0,36.0,30.09,SW,229,1.0,3.0,55,0.00,,,0.00,,2013-04-23 13:01:00,
2013-04-23 09:11:00,52.0,36.0,30.09,SW,229,1.0,3.0,55,0.00,,,0.00,,2013-04-23 13:11:00,
2013-04-23 09:22:00,53.0,37.0,30.08,SW,221,1.0,5.0,55,0.00,,,0.00,,2013-04-23 13:22:00,
2013-04-23 09:32:00,54.0,38.0,30.08,SE,138,1.0,6.0,54,0.00,,,0.00,,2013-04-23 13:32:00,
2013-04-23 09:42:00,54.0,38.0,30.08,SE,138,1.0,6.0,54,0.00,,,0.00,,2013-04-23 13:42:00,
2013-04-23 09:52:00,55.0,38.0,30.07,South,186,1.0,5.0,52,0.00,,,0.00,,2013-04-23 13:52:00,
2013-04-23 10:02:00,56.0,39.0,30.08,ESE,121,0.0,7.0,53,0.00,,,0.00,,2013-04-23 14:02:00,
2013-04-23 10:11:00,56.0,39.0,30.08,ESE,121,0.0,7.0,53,0.00,,,0.00,,2013-04-23 14:11:00,
2013-04-23 10:22:00,57.0,39.0,30.06,SSW,200,3.0,6.0,51,0.00,,,0.00,,2013-04-23 14:22:00,
2013-04-23 10:32:00,58.0,40.0,30.06,WNW,291,0.0,4.0,52,0.00,,,0.00,,2013-04-23 14:32:00,
2013-04-23 10:42:00,58.0,40.0,30.06,WNW,291,0.0,4.0,52,0.00,,,0.00,,2013-04-23 14:42:00,
2013-04-23 10:52:00,59.0,40.0,30.04,SW,218,2.0,6.0,50,0.00,,,0.00,,2013-04-23 14:52:00,
2013-04-23 11:01:00,59.0,40.0,30.04,SW,218,2.0,6.0,50,0.00,,,0.00,,2013-04-23 15:01:00,
2013-04-23 11:12:00,59.0,40.0,30.05,South,173,2.0,6.0,50,0.00,,,0.00,,2013-04-23 15:12:00,
2013-04-23 11:22:00,60.0,42.0,30.04,East,93,0.0,7.0,51,0.00,,,0.00,,2013-04-23 15:22:00,
2013-04-23 11:32:00,62.0,42.0,30.04,SSW,198,2.0,8.0,48,0.00,,,0.00,,2013-04-23 15:32:00,
2013-04-23 11:43:00,62.0,42.0,30.04,SSW,198,2.0,8.0,48,0.00,,,0.00,,2013-04-23 15:43:00,
2013-04-23 11:53:00,63.0,43.0,30.04,West,278,1.0,5.0,48,0.00,,,0.00,,2013-04-23 15:53:00,
2013-04-23 12:03:00,63.0,42.0,30.03,West,266,3.0,7.0,47,0.00,,,0.00,,2013-04-23 16:03:00,
2013-04-23 12:12:00,63.0,42.0,30.03,West,266,3.0,7.0,47,0.00,,,0.00,,2013-04-23 16:12:00,
2013-04-23 12:23:00,63.0,44.0,30.03,South,172,1.0,7.0,49,0.00,,,0.00,,2013-04-23 16:23:00,
2013-04-23 12:34:00,64.0,44.0,30.02,East,87,1.0,8.0,48,0.00,,,0.00,,2013-04-23 16:34:00,
2013-04-23 12:43:00,64.0,44.0,30.02,East,87,1.0,8.0,48,0.00,,,0.00,,2013-04-23 16:43:00,
2013-04-23 12:53:00,65.0,44.0,30.01,SW,217,3.0,7.0,46,0.00,,,0.00,,2013-04-23 16:53:00,
2013-04-23 13:02:00,66.0,45.0,30.01,SW,236,2.0,7.0,46,0.00,,,0.00,,2013-04-23 17:02:00,
2013-04-23 13:12:00,66.0,45.0,30.01,SW,236,2.0,7.0,46,0.00,,,0.00,,2013-04-23 17:12:00,
2013-04-23 13:22:00,66.0,44.0,30.00,SSW,210,2.0,7.0,45,0.00,,,0.00,,2013-04-23 17:22:00,
2013-04-23 13:32:00,66.0,45.0,29.99,WSW,245,3.0,15.0,46,0.00,,,0.00,,2013-04-23 17:32:00,
2013-04-23 13:42:00,66.0,45.0,29.99,WSW,245,3.0,15.0,46,0.00,,,0.00,,2013-04-23 17:42:00,
2013-04-23 13:53:00,66.0,44.0,29.98,East,87,3.0,9.0,45,0.00,,,0.00,,2013-04-23 17:53:00,
2013-04-23 14:02:00,67.0,44.0,29.97,ESE,113,3.0,8.0,44,0.00,,,0.00,,2013-04-23 18:02:00,
2013-04-23 14:12:00,67.0,44.0,29.97,ESE,113,3.0,8.0,44,0.00,,,0.00,,2013-04-23 18:12:00,
2013-04-23 14:22:00,67.0,44.0,29.96,WSW,243,3.0,10.0,43,0.00,,,0.00,,2013-04-23 18:22:00,
2013-04-23 14:32:00,68.0,45.0,29.95,SW,228,2.0,7.0,43,0.00,,,0.00,,2013-04-23 18:32:00,
2013-04-23 14:42:00,68.0,45.0,29.95,SW,228,2.0,7.0,43,0.00,,,0.00,,2013-04-23 18:42:00,
2013-04-23 14:52:00,68.0,45.0,29.93,WSW,243,1.0,10.0,43,0.00,,,0.00,,2013-04-23 18:52:00,
2013-04-23 15:02:00,69.0,45.0,29.93,SW,222,5.0,15.0,42,0.00,,,0.00,,2013-04-23 19:02:00,
2013-04-23 15:11:00,69.0,45.0,29.93,SW,222,5.0,15.0,42,0.00,,,0.00,,2013-04-23 19:11:00,
2013-04-23 15:22:00,68.0,44.0,29.93,WSW,243,3.0,9.0,42,0.00,,,0.00,,2013-04-23 19:22:00,
2013-04-23 15:32:00,68.0,45.0,29.92,SW,228,4.0,12.0,43,0.00,,,0.00,,2013-04-23 19:32:00,
2013-04-23 15:42:00,68.0,45.0,29.92,SW,228,4.0,12.0,43,0.00,,,0.00,,2013-04-23 19:42:00,
2013-04-23 15:52:00,69.0,45.0,29.91,SW,228,7.0,11.0,42,0.00,,,0.00,,2013-04-23 19:52:00,
2013-04-23 16:02:00,68.0,45.0,29.90,SSW,192,3.0,13.0,44,0.00,,,0.00,,2013-04-23 20:02:00,
2013-04-23 16:11:00,68.0,45.0,29.90,SSW,192,3.0,13.0,44,0.00,,,0.00,,2013-04-23 20:11:00,
2013-04-23 16:22:00,68.0,45.0,29.89,SW,217,4.0,8.0,44,0.00,,,0.00,,2013-04-23 20:22:00,
2013-04-23 16:32:00,68.0,45.0,29.88,SW,214,5.0,9.0,44,0.00,,,0.00,,2013-04-23 20:32:00,
2013-04-23 16:42:00,68.0,45.0,29.88,SW,214,5.0,9.0,44,0.00,,,0.00,,2013-04-23 20:42:00,
2013-04-23 16:52:00,68.0,45.0,29.88,SW,214,5.0,9.0,44,0.00,,,0.00,,2013-04-23 20:52:00,
2013-04-23 17:02:00,68.0,46.0,29.88,SSE,159,2.0,10.0,45,0.00,,,0.00,,2013-04-23 21:02:00,
2013-04-23 17:12:00,68.0,46.0,29.88,SSE,159,2.0,10.0,45,0.00,,,0.00,,2013-04-23 21:12:00,
2013-04-23 17:22:00,68.0,45.0,29.87,WSW,251,4.0,9.0,43,0.00,,,0.00,,2013-04-23 21:22:00,
2013-04-23 17:33:00,68.0,45.0,29.86,SSE,153,5.0,10.0,43,0.00,,,0.00,,2013-04-23 21:33:00,
2013-04-23 17:43:00,68.0,45.0,29.86,SSE,153,5.0,10.0,43,0.00,,,0.00,,2013-04-23 21:43:00,
2013-04-23 17:52:00,68.0,45.0,29.86,South,191,4.0,10.0,44,0.00,,,0.00,,2013-04-23 21:52:00,
2013-04-23 18:03:00,67.0,46.0,29.86,SSW,208,3.0,10.0,46,0.00,,,0.00,,2013-04-23 22:03:00,
2013-04-23 18:12:00,67.0,46.0,29.86,SSW,208,3.0,10.0,46,0.00,,,0.00,,2013-04-23 22:12:00,
2013-04-23 18:23:00,65.0,49.0,29.87,SSW,195,4.0,11.0,56,0.00,,,0.00,,2013-04-23 22:23:00,
2013-04-23 18:33:00,62.0,50.0,29.87,SW,226,7.0,13.0,65,0.00,,,0.00,,2013-04-23 22:33:00,
2013-04-23 18:42:00,62.0,50.0,29.87,SW,226,7.0,13.0,65,0.00,,,0.00,,2013-04-23 22:42:00,
2013-04-23 18:52:00,59.0,52.0,29.88,WSW,255,7.0,17.0,77,0.02,,,0.02,,2013-04-23 22:52:00,
2013-04-23 19:03:00,57.0,53.0,29.89,West,259,5.0,11.0,88,0.04,,,0.04,,2013-04-23 23:03:00,
2013-04-23 19:12:00,57.0,53.0,29.89,West,259,5.0,11.0,88,0.04,,,0.04,,2013-04-23 23:12:00,
2013-04-23 19:22:00,56.0,53.0,29.89,WSW,240,2.0,6.0,91,0.05,,,0.05,,2013-04-23 23:22:00,
2013-04-23 19:32:00,55.0,53.0,29.89,WSW,249,1.0,3.0,93,0.06,,,0.06,,2013-04-23 23:32:00,
2013-04-23 19:42:00,55.0,53.0,29.89,WSW,249,1.0,3.0,93,0.06,,,0.06,,2013-04-23 23:42:00,
2013-04-23 19:52:00,55.0,53.0,29.88,SSE,166,0.0,3.0,94,0.05,,,0.07,,2013-04-23 23:52:00,
2013-04-23 20:02:00,55.0,54.0,29.87,SW,225,0.0,2.0,95,0.03,,,0.07,,2013-04-24 00:02:00,
2013-04-23 20:11:00,55.0,54.0,29.87,SW,225,0.0,2.0,95,0.03,,,0.07,,2013-04-24 00:11:00,
2013-04-23 20:22:00,55.0,54.0,29.86,SW,217,0.0,1.0,96,0.02,,,0.07,,2013-04-24 00:22:00,
2013-04-23 20:32:00,55.0,54.0,29.86,SSE,163,0.0,0.0,96,0.01,,,0.07,,2013-04-24 00:32:00,
2013-04-23 20:42:00,55.0,54.0,29.86,SSE,163,0.0,0.0,96,0.01,,,0.07,,2013-04-24 00:42:00,
2013-04-23 20:52:00,55.0,54.0,29.86,SSW,199,0.0,2.0,96,0.01,,,0.08,,2013-04-24 00:52:00,
2013-04-23 21:02:00,55.0,54.0,29.86,SSW,207,0.0,2.0,97,0.01,,,0.08,,2013-04-24 01:02:00,
2013-04-23 21:11:00,55.0,54.0,29.86,SSW,207,0.0,2.0,97,0.01,,,0.08,,2013-04-24 01:11:00,
2013-04-23 21:21:00,55.0,54.0,29.86,SW,225,1.0,4.0,97,0.01,,,0.08,,2013-04-24 01:21:00,
2013-04-23 21:32:00,55.0,54.0,29.86,SW,216,1.0,6.0,96,0.01,,,0.08,,2013-04-24 01:32:00,
2013-04-23 21:42:00,55.0,54.0,29.86,SW,216,1.0,6.0,96,0.01,,,0.08,,2013-04-24 01:42:00,
2013-04-23 21:52:00,55.0,54.0,29.87,South,183,2.0,6.0,96,0.01,,,0.09,,2013-04-24 01:52:00,
2013-04-23 22:02:00,55.0,54.0,29.86,WSW,238,2.0,5.0,96,0.01,,,0.09,,2013-04-24 02:02:00,
2013-04-23 22:20:00,55.0,54.0,29.86,WSW,238,2.0,5.0,96,0.01,,,0.09,,2013-04-24 02:20:00,
2013-04-23 22:30:00,54.0,53.0,29.86,SW,217,1.0,4.0,95,0.02,,,0.10,,2013-04-24 02:30:00,
2013-04-23 22:41:00,54.0,53.0,29.86,South,170,1.0,3.0,96,0.03,,,0.11,,2013-04-24 02:41:00,
2013-04-23 22:49:00,54.0,53.0,29.86,South,170,1.0,3.0,96,0.03,,,0.11,,2013-04-24 02:49:00,
2013-04-23 22:56:00,54.0,53.0,29.85,WSW,246,0.0,2.0,96,0.04,,,0.13,,2013-04-24 02:56:00,
2013-04-23 23:12:00,54.0,53.0,29.85,SSW,205,0.0,2.0,96,0.08,,,0.17,,2013-04-24 03:12:00,
2013-04-23 23:18:00,54.0,53.0,29.85,SSW,205,0.0,2.0,96,0.08,,,0.17,,2013-04-24 03:18:00,
2013-04-23 23:42:00,54.0,53.0,29.84,WSW,238,0.0,1.0,97,0.12,,,0.24,,2013-04-24 03:42:00,
2013-04-23 23:52:00,54.0,53.0,29.84,WSW,238,0.0,1.0,97,0.12,,,0.24,,2013-04-24 03:52:00,